Dewpoint
49 47 47 46 45 46 47 46 47 46 47 47 48 48 49 49 51 49 50 49 49 49 49 49 49 49 49 48 48 49 50 51 50 51 51 50 50 51 52 52 53 55
49 49 49 47 48 48 48 46 46 46 47 47 47 48 48 49 49 50 49 50 50 49 49 49 49 48 47 48 49 49 49 49 48 51 49 49 49 50 50 51 51 53
49 49 48 47 48 48 47 48 47 47 47 47 47 48 49 50 50 49 49 49 48 48 48 48 47 48 48 48 48 47 47 47 47 48 49 48 49 49 49 49 50 51
49 49 48 48 47 48 47 48 47 48 48 48 47 49 49 50 49 49 49 53 48 47 47 47 48 47 47 47 46 46 46 46 47 47 47 47 48 48 47 48 48 48
49 49 49 48 47 48 47 47 46 47 47 47 48 49 50 48 48 48 48 48 47 47 46 47 46 46 46 46 45 44 46 46 46 46 45 45 46 47 47 47 46 45
49 49 48 48 47 47 47 46 46 47 47 47 48 48 46 47 47 47 47 46 46 46 45 45 45 45 45 44 44 44 44 44 45 45 45 45 45 45 45 45 44 44
48 48 48 47 47 47 46 46 47 47 47 47 47 46 46 46 46 46 45 45 45 46 45 44 44 44 44 44 44 44 44 44 44 45 44 44 45 44 44 44 44 44
48 47 47 47 47 47 46 47 47 47 47 47 45 46 46 46 45 45 45 44 44 44 44 44 43 43 43 43 44 43 43 45 44 44 44 44 43 43 43 44 44 43
48 47 46 46 47 47 46 47 47 47 47 45 45 45 46 45 45 44 44 44 44 43 43 43 43 43 43 43 43 43 43 43 44 44 43 44 43 43 43 43 43 43
47 47 46 46 46 47 46 47 47 47 47 45 45 45 45 46 44 44 44 43 43 43 42 42 42 42 42 42 42 42 43 43 43 43 44 44 43 43 43 43 43 43
48 47 46 46 46 46 46 47 46 46 47 45 45 45 44 45 46 44 43 42 42 42 41 41 41 42 41 42 42 42 42 42 42 42 43 43 43 43 44 43 43 43
48 47 46 46 46 46 46 46 46 46 46 45 46 45 44 43 43 43 43 42 41 41 40 40 41 41 40 41 41 42 42 42 42 42 42 42 42 42 42 42 43 42
48 47 47 46 47 46 46 46 46 46 46 45 45 44 44 42 41 42 43 41 41 41 40 40 40 41 40 40 41 41 41 41 42 42 42 42 42 42 42 42 42 42
48 48 47 47 47 47 47 46 46 45 45 44 45 43 42 41 40 40 41 41 41 41 41 43 41 40 40 40 41 41 41 41 41 42 41 41 41 41 42 42 42 42
48 48 47 47 47 47 46 46 45 44 44 43 43 42 43 41 41 40 39 39 39 40 40 41 40 40 41 40 40 40 40 39 39 39 38 38 38 38 38 39 39 39
49 48 47 47 46 46 46 45 45 44 43 42 41 41 41 41 40 40 39 39 38 39 39 40 40 40 44 41 40 39 38 38 38 38 37 37 38 37 37 38 38 38
48 48 47 47 46 46 45 44 44 43 42 41 40 40 40 41 39 39 38 39 38 38 37 38 39 40 39 38 38 38 38 37 37 36 36 36 36 36 36 36 37 37
50 49 47 47 46 45 44 44 43 42 41 40 40 39 40 39 38 38 38 38 38 38 37 38 38 40 38 38 38 37 38 39 37 37 37 36 36 36 35 35 35 36
48 48 46 46 45 44 44 43 42 42 40 40 39 39 39 38 37 37 37 37 37 36 37 38 38 39 38 38 38 37 37 38 37 37 36 36 35 35 35 35 35 35
48 47 47 45 44 44 43 43 42 41 40 40 39 39 37 37 36 36 36 36 37 37 37 37 38 39 38 38 37 37 36 37 37 37 36 36 36 35 35 34 34 34
48 47 46 45 44 43 43 42 42 39 40 39 38 37 36 35 35 34 36 38 36 35 35 36 37 37 36 36 36 36 36 36 36 36 36 35 35 34 34 34 34 34
47 46 46 44 44 43 42 41 41 41 39 38 37 36 35 35 34 35 35 34 34 34 33 34 35 36 36 36 36 35 36 36 35 34 34 34 33 33 33 33 33 33
45 46 45 43 42 42 41 41 40 38 38 38 36 35 34 34 33 34 35 33 34 34 32 33 33 35 35 35 35 35 35 33 33 32 32 32 32 32 33 32 33 32
46 45 43 42 42 41 41 40 39 38 38 38 36 35 34 34 34 33 32 34 33 32 33 33 32 33 34 34 35 34 35 33 32 32 31 32 32 32 32 32 32 37
45 43 42 41 41 40 40 39 37 37 38 36 36 34 34 34 36 31 31 31 32 32 37 35 32 33 34 34 34 34 35 33 32 32 31 31 32 31 32 32 32 34
44 42 41 41 40 39 38 37 37 37 36 35 34 34 33 32 34 31 30 30 31 31 32 32 32 32 34 34 34 34 35 34 33 32 31 31 31 31 32 32 32 32